Wetbulb
37.70 38.07 38.59 38.79 38.92 39.14 39.50 39.85 40.09 40.32 40.71 41.34 41.96 42.40 43.00 43.42 44.04 42.19 39.30 41.70 36.02 26.75 26.61 30.11 31.34 28.37 26.85 27.09 24.97 24.89 27.62 27.62 24.73 22.45 22.88 18.29 16.19 19.87 20.61 21.73 26.93 30.04 28.58 28.41 25.27 22.47 21.05 28.56 27.76 26.72 27.84 28.89 29.52 30.10
37.53 38.17 38.23 38.42 38.83 38.85 39.13 39.33 39.66 39.94 40.28 40.71 41.35 41.81 42.29 42.60 43.22 43.23 37.19 41.47 41.46 32.96 32.08 32.16 32.32 33.44 34.35 33.50 29.44 23.94 25.51 24.27 29.71 24.47 19.78 18.39 12.82 12.73 12.40 14.45 23.44 23.35 27.52 23.87 27.03 26.35 27.90 27.13 28.61 30.04 30.68 29.68 29.74 30.13
37.35 38.02 38.22 38.06 38.36 38.46 38.73 39.07 39.31 39.90 40.03 40.32 40.71 41.42 41.91 42.24 42.73 42.30 37.03 39.69 38.78 31.58 31.79 32.65 29.29 32.76 34.91 35.08 35.78 28.81 25.31 29.05 27.67 28.04 22.28 18.11 17.27 19.53 11.98 12.18 15.58 21.75 21.60 21.72 23.54 20.52 25.04 29.06 31.13 31.09 31.17 31.08 30.33 30.08
37.12 37.53 37.86 37.89 37.62 37.86 38.37 38.75 39.02 39.48 39.94 39.80 40.19 40.41 41.08 41.74 42.20 42.46 37.71 39.80 36.87 32.39 27.74 25.39 30.65 30.84 33.57 35.17 33.85 34.32 31.42 29.70 28.32 26.10 19.54 15.25 16.37 24.26 17.39 20.87 18.86 21.75 23.49 16.09 15.69 19.68 23.46 25.03 27.53 30.80 29.55 29.91 29.96 29.53
36.74 37.80 37.49 37.41 37.69 37.94 38.17 38.60 39.31 39.38 39.55 39.25 39.54 39.96 40.58 41.34 41.82 40.81 38.77 39.86 39.56 33.39 23.91 17.89 24.40 29.17 30.70 33.00 32.82 32.31 31.63 28.35 23.40 22.30 21.62 17.85 19.91 20.50 18.03 21.40 18.68 23.77 22.55 21.61 20.19 26.22 28.21 29.57 30.24 29.29 28.15 28.52 28.92 28.74
36.98 37.65 37.20 36.99 37.42 37.65 37.85 38.01 38.22 38.45 38.59 38.63 38.80 39.41 40.03 40.98 41.53 37.04 29.78 37.75 39.90 37.77 28.00 19.67 25.69 22.56 26.93 30.48 30.31 30.24 30.26 26.54 24.90 22.98 19.37 20.12 25.07 22.31 11.16 10.56 23.27 25.33 26.39 27.56 25.57 28.17 28.10 29.42 30.18 28.83 28.38 27.91 27.82 27.08
37.00 37.72 37.17 37.12 37.48 37.49 37.54 37.79 37.94 38.04 38.03 38.11 38.63 38.96 39.71 40.66 38.39 32.18 28.96 30.62 40.44 37.91 27.94 18.38 17.73 23.97 27.08 26.35 22.96 24.27 24.85 22.30 23.60 20.75 19.15 22.53 22.76 20.49 10.46 12.10 23.08 25.48 26.90 27.29 27.72 26.67 24.49 25.67 26.47 27.83 28.06 27.10 22.01 19.55
36.91 37.56 37.24 37.08 37.67 36.91 37.03 37.53 37.65 37.91 38.13 38.13 38.32 38.68 39.27 40.36 39.51 33.89 36.45 39.20 39.67 32.41 29.90 20.48 15.56 20.12 28.14 27.91 25.98 26.38 24.63 26.59 24.20 21.01 16.83 21.95 21.44 17.81 13.95 25.76 25.71 25.56 25.39 24.82 25.83 26.71 26.38 25.14 24.23 23.56 21.26 18.15 14.52 15.59
36.05 37.80 36.88 36.30 36.70 37.98 37.75 38.53 37.89 37.76 37.90 37.99 38.36 38.46 35.32 34.52 31.03 31.74 40.20 40.61 36.73 29.21 23.45 20.87 11.86 16.88 28.67 27.97 28.31 28.32 27.69 24.67 26.50 24.02 21.29 22.32 17.68 18.47 23.32 25.24 24.15 22.67 23.38 23.45 20.65 17.45 16.68 18.46 20.13 18.59 14.90 10.74 12.26 12.25
35.54 35.91 35.08 35.26 35.70 36.26 36.59 36.20 36.98 37.47 38.16 38.23 33.84 26.58 25.60 31.43 38.21 39.50 33.50 29.57 28.97 28.20 22.67 17.16 15.80 15.26 27.28 21.98 22.55 21.05 24.48 22.55 18.97 22.17 24.09 22.81 18.67 26.92 24.90 22.58 22.13 22.27 23.36 20.08 15.39 14.27 7.86 8.38 14.71 12.52 9.57 6.83 7.43 6.72
34.53 34.80 34.66 34.90 35.82 36.08 36.13 36.58 37.08 37.21 37.71 31.91 27.30 23.00 26.02 38.89 31.67 27.01 22.80 21.74 22.45 19.87 17.97 10.86 15.33 17.97 26.77 18.11 16.13 22.77 21.15 22.62 16.64 17.04 21.09 18.34 15.10 24.96 27.17 16.08 20.37 21.43 20.35 16.32 16.61 13.13 9.96 11.75 11.20 5.55 -0.12 -3.24 -3.37 -4.52
33.72 34.42 34.16 34.64 35.06 34.89 35.37 36.34 37.30 35.36 32.62 29.99 27.23 31.33 31.67 27.46 23.50 19.12 17.88 15.17 13.01 13.04 16.01 14.14 13.10 17.30 18.71 23.69 21.82 22.47 16.96 18.39 14.50 21.21 18.95 12.48 20.97 26.48 20.47 17.92 13.35 12.68 12.46 4.05 1.23 2.40 -0.12 0.63 -0.89 -2.06 -5.09 -8.24 -11.02 -10.42
33.16 33.82 33.56 34.10 33.69 34.53 34.94 35.67 36.67 38.35 36.48 29.50 22.51 24.16 22.71 21.31 14.05 13.23 10.18 9.49 12.81 9.26 18.66 10.12 11.43 16.62 23.05 25.18 22.28 15.60 16.38 14.95 17.58 14.87 10.20 12.21 12.08 8.71 10.61 5.00 -0.73 -4.53 -3.92 -5.71 -7.60 -6.90 -7.18 -10.34 -11.91 -11.52 -11.99 -16.31 -17.28 -19.07
32.35 32.98 32.12 32.43 32.86 33.87 33.93 34.87 37.47 38.41 30.89 22.89 17.81 14.38 14.67 13.16 13.86 11.68 10.90 7.05 9.50 11.24 11.62 17.45 11.01 15.54 16.39 17.71 19.56 15.25 16.72 15.12 12.58 11.22 7.44 8.86 12.61 12.74 6.46 -1.44 -0.04 -4.15 -4.78 -6.30 -8.86 -9.91 -10.59 -10.72 -14.27 -20.29 -19.63 -20.20 -19.42 -20.67
31.66 30.75 30.05 29.88 33.06 32.50 33.94 37.42 39.65 27.64 19.99 16.06 16.78 11.93 12.56 4.83 -9.20 -16.80 -16.04 4.10 0.70 8.82 18.21 12.07 11.24 16.45 10.38 15.69 18.49 12.64 6.98 8.44 12.24 8.66 9.29 11.45 -1.08 -3.58 -4.44 -7.11 -7.18 -6.92 -8.05 -10.80 -14.63 -13.16 -13.69 -15.11 -16.11 -19.54 -23.49 -25.12 -22.84 -25.05
30.13 25.06 23.03 30.83 32.50 30.61 34.19 31.28 19.83 11.08 -0.07 2.29 -3.85 3.04 -3.73 1.13 -3.48 -10.80 -16.23 -9.82 -8.34 0.69 10.08 10.68 4.29 6.63 4.82 14.02 11.53 9.30 9.57 8.36 7.44 4.76 -4.71 -11.22 -12.37 -13.16 -12.56 -11.65 -11.41 -10.34 -11.34 -14.57 -15.84 -16.74 -16.85 -18.04 -18.18 -19.24 -26.70 -26.82 -25.44 -24.41
24.41 12.24 26.40 29.76 30.23 26.54 24.57 13.76 9.54 -0.22 -0.98 -8.20 -18.05 -23.56 -18.36 -15.44 -12.46 -18.05 -18.99 -9.88 -1.84 6.39 7.76 5.87 8.11 4.85 7.91 6.48 10.94 12.74 4.67 4.96 -14.61 -18.16 -18.61 -17.30 -15.14 -17.07 -14.43 -14.02 -15.95 -14.81 -13.88 -16.41 -20.62 -22.08 -22.42 -27.15 -28.91 -23.72 -18.70 -21.80 -26.64 -26.26
13.67 19.29 26.03 27.98 24.86 18.47 9.04 6.33 2.21 -1.17 -12.40 -15.59 -13.43 -15.72 -16.37 -13.52 -15.18 -14.40 -10.28 -4.62 -3.33 0.58 5.79 7.67 11.72 10.69 5.34 4.44 2.78 7.41 -3.24 -13.56 -19.28 -19.36 -17.02 -18.94 -16.22 -15.85 -14.58 -16.48 -17.75 -13.92 -14.57 -21.29 -18.66 -22.53 -25.79 -21.53 -15.64 -20.37 -26.42 -26.42 -25.57 -24.47
21.22 20.59 23.24 24.56 19.87 9.46 4.70 2.74 1.48 -8.33 -13.10 -16.04 -10.76 -9.40 -15.00 -15.71 -7.44 -4.83 -10.64 -8.60 -6.49 -2.02 0.37 7.47 9.55 11.94 10.08 -7.95 -11.06 -19.71 -18.78 -12.77 -9.47 -11.99 -15.74 -11.48 -10.62 -11.43 -11.80 -12.12 -14.94 -13.58 -13.80 -19.43 -19.29 -15.87 -16.78 -21.26 -21.50 -23.69 -23.89 -23.29 -20.39 -23.09
21.43 20.92 20.65 18.70 18.07 8.43 -0.36 -4.61 -0.96 -6.04 -14.49 -10.22 -11.70 -13.88 -13.19 -12.99 -12.03 -11.37 -9.25 -6.14 -0.81 -1.57 1.98 -5.15 -14.80 -23.96 -23.03 -21.53 -16.99 -12.76 -12.19 -10.69 -10.16 -10.68 -11.68 -11.62 -11.56 -10.18 -10.46 -9.81 -10.92 -14.30 -17.02 -22.76 -23.05 -21.31 -24.90 -22.89 -24.68 -25.05 -24.94 -22.60 -21.69 -20.82
10.53 10.85 13.01 6.76 1.56 -1.51 -6.01 -6.60 -7.02 -5.24 -4.67 -8.27 -8.92 -5.53 -5.87 -4.88 -8.83 -9.77 -9.55 -6.04 -11.45 -18.31 -16.77 -22.62 -21.85 -17.81 -18.35 -18.36 -15.99 -14.70 -13.79 -10.32 -12.44 -13.97 -13.35 -14.11 -13.22 -10.18 -15.32 -16.61 -14.09 -15.08 -19.23 -25.35 -22.03 -23.76 -23.73 -24.23 -24.23 -25.97 -24.14 -23.74 -24.76 -23.12
3.09 11.15 -2.02 3.48 -2.61 -5.57 -8.00 -8.84 -8.09 -3.89 -3.75 -6.65 -5.54 -7.15 -9.66 -8.59 -9.77 -12.86 -9.21 -13.80 -18.97 -20.81 -22.33 -20.05 -19.90 -18.27 -15.74 -19.77 -19.61 -18.20 -16.29 -12.05 -13.35 -10.05 -9.58 -10.29 -12.61 -11.90 -11.95 -13.97 -12.29 -14.52 -16.14 -19.48 -25.46 -25.44 -26.50 -26.71 -26.99 -26.06 -24.18 -23.18 -20.75 -20.68
2.31 1.88 -5.99 -6.87 -7.82 -10.68 -13.64 -5.97 -8.21 -10.05 -7.56 -8.02 -5.65 -5.25 -9.72 -8.60 -11.08 -8.88 -17.49 -18.38 -21.43 -19.20 -20.70 -20.56 -20.80 -20.79 -18.84 -18.35 -16.44 -16.66 -18.78 -11.60 -12.82 -13.33 -13.65 -16.08 -18.70 -17.98 -16.88 -19.85 -18.58 -18.18 -21.36 -24.79 -30.79 -29.00 -24.77 -19.54 -19.48 -22.05 -22.89 -21.55 -21.73 -21.27
-5.55 -19.48 -20.92 -21.70 -17.59 -20.13 -18.41 -13.94 -10.26 -9.84 -10.70 -11.09 -6.28 -7.92 -11.99 -15.90 -16.15 -8.05 -17.18 -19.35 -18.67 -16.75 -17.78 -20.05 -18.80 -15.45 -14.88 -13.82 -17.00 -18.33 -20.75 -19.46 -19.67 -21.45 -22.67 -16.58 -17.02 -22.24 -27.66 -32.59 -34.64 -33.91 -29.65 -28.69 -27.62 -27.11 -25.88 -24.97 -19.88 -22.00 -22.67 -24.14 -25.05 -22.83
-8.57 -27.46 -25.44 -29.84 -26.13 -22.09 -22.85 -23.97 -18.53 -12.68 -15.93 -17.50 -9.61 -10.33 -15.85 -22.10 -7.16 -12.52 -13.48 -17.54 -17.94 -17.79 -18.55 -20.38 -17.88 -18.00 -16.53 -19.45 -19.11 -19.52 -23.81 -22.40 -18.31 -17.83 -24.38 -25.27 -32.59 -32.33 -29.45 -31.99 -31.39 -31.38 -32.72 -27.00 -26.82 -27.24 -27.38 -28.13 -25.50 -24.28 -23.54 -25.10 -24.08 -23.52
-30.48 -35.57 -29.84 -36.64 -31.55 -29.83 -32.15 -23.03 -26.11 -26.10 -25.35 -17.90 -21.68 -21.17 -23.16 -13.58 -7.09 -11.78 -15.27 -17.50 -18.30 -18.88 -18.35 -19.12 -20.83 -21.84 -22.15 -24.87 -22.29 -23.08 -22.55 -34.29 -33.55 -25.77 -28.13 -33.92 -30.81 -28.29 -30.27 -27.31 -25.95 -21.42 -28.51 -29.69 -27.30 -27.99 -27.38 -25.35 -26.66 -25.44 -24.92 -23.92 -18.94 -22.53
-29.25 -34.82 -36.24 -38.65 -35.25 -32.21 -31.65 -33.15 -32.02 -27.93 -31.13 -27.38 -28.80 -27.25 -19.29 -15.38 -16.48 -16.52 -18.63 -19.07 -18.68 -20.03 -23.06 -24.65 -27.11 -26.25 -27.85 -29.67 -31.58 -34.67 -37.75 -39.50 -31.57 -28.26 -32.79 -33.61 -30.12 -31.30 -26.76 -25.19 -24.76 -21.57 -29.20 -28.86 -28.98 -27.86 -26.49 -26.96 -26.12 -26.04 -26.01 -26.52 -25.79 -24.52
-36.77 -38.43 -33.32 -35.35 -36.33 -42.97 -40.72 -37.00 -34.28 -35.42 -33.25 -29.79 -34.31 -26.37 -24.22 -23.26 -20.76 -24.69 -23.16 -22.02 -29.58 -29.29 -30.52 -38.77 -39.30 -37.43 -35.98 -34.49 -35.54 -34.67 -33.35 -37.43 -34.97 -34.44 -33.35 -31.23 -33.24 -31.83 -32.21 -31.39 -28.83 -12.45 -26.05 -26.02 -23.93 -24.79 -28.18 -26.12 -26.01 -26.33 -26.64 -24.47 -21.53 -23.64
-35.83 -41.20 -39.58 -34.82 -37.90 -34.17 -39.13 -37.90 -38.15 -37.63 -34.31 -41.18 -34.64 -30.66 -29.71 -29.26 -32.94 -34.55 -30.16 -32.76 -40.96 -34.72 -34.60 -34.17 -30.99 -41.83 -38.26 -39.26 -40.22 -40.51 -39.10 -33.42 -26.07 -26.42 -26.86 -26.15 -27.21 -21.81 -30.00 -31.05 -29.67 -27.22 -26.57 -26.22 -14.00 -14.10 -21.61 -23.52 -23.48 -23.10 -21.33 -20.96 -21.05 -27.37
-35.97 -45.17 -36.20 -39.53 -32.28 -32.93 -35.06 -39.73 -41.00 -44.90 -45.95 -41.25 -42.74 -34.48 -33.54 -34.07 -34.93 -40.93 -41.22 -41.64 -35.45 -33.01 -33.97 -35.91 -39.60 -36.83 -33.14 -33.71 -31.66 -30.46 -33.39 -32.17 -27.42 -24.45 -25.65 -25.71 -22.87 -26.53 -33.49 -31.30 -29.22 -29.94 -29.81 -31.52 -23.49 -24.15 -15.42 -20.28 -21.62 -27.23 -27.19 -26.82 -27.21 -27.10
-44.35 -45.73 -37.43 -37.14 -34.17 -39.22 -43.46 -50.19 -53.09 -50.74 -49.76 -49.03 -52.50 -42.90 -38.05 -39.82 -34.32 -39.68 -37.13 -40.02 -42.22 -46.06 -39.89 -37.34 -39.53 -43.85 -38.08 -37.34 -35.05 -32.62 -25.03 -30.39 -29.18 -26.35 -27.85 -29.13 -28.63 -31.54 -31.08 -28.84 -28.09 -32.48 -33.10 -30.81 -29.02 -29.36 -25.96 -26.75 -31.01 -30.49 -28.32 -27.42 -26.93 -25.11
-39.47 -44.52 -35.07 -29.22 -31.80 -41.38 -48.53 -48.25 -48.14 -44.59 -47.94 -42.85 -39.78 -50.68 -40.47 -37.90 -31.83 -29.04 -31.66 -38.32 -39.80 -37.85 -30.36 -35.33 -35.92 -27.70 -29.70 -26.96 -32.47 -31.72 -23.05 -30.40 -31.15 -25.37 -25.83 -24.22 -25.21 -24.47 -24.36 -25.35 -29.62 -33.35 -33.55 -28.98 -30.38 -30.39 -31.10 -29.98 -28.56 -28.27 -26.87 -27.26 -26.62 -26.30
-45.33 -47.21 -46.82 -38.54 -30.94 -31.38 -37.98 -39.59 -34.85 -32.39 -38.12 -37.55 -37.86 -47.17 -46.75 -38.53 -27.24 -23.98 -29.48 -32.05 -29.39 -28.84 -29.52 -28.97 -27.89 -30.91 -29.24 -28.17 -26.99 -26.99 -22.90 -25.39 -25.82 -13.95 -10.47 -12.01 -15.69 -17.44 -26.10 -30.23 -33.21 -33.19 -31.25 -28.92 -27.41 -27.40 -28.21 -28.84 -27.01 -26.71 -26.48 -25.87 -24.87 -23.89
MSLP
1006.87 1006.95 1007.02 1006.90 1006.99 1006.97 1007.14 1007.14 1007.20 1007.34 1007.59 1007.78 1008.03 1008.24 1008.52 1009.01 1009.18 1009.62 1010.31 1010.58 1011.38 1011.63 1011.55 1011.25 1010.77 1011.19 1011.64 1011.95 1012.98 1013.96 1014.52 1014.79 1015.27 1015.57 1016.44 1017.40 1017.86 1017.77 1017.30 1017.26 1016.65 1016.19 1016.49 1016.96 1017.45 1017.51 1016.71 1015.56 1016.35 1016.27 1016.49 1017.18 1017.31 1017.91
1006.18 1006.10 1005.89 1006.03 1006.05 1006.28 1006.30 1006.56 1006.64 1006.87 1006.98 1007.23 1007.55 1007.83 1008.14 1008.44 1008.94 1009.26 1009.95 1010.43 1010.82 1011.56 1011.61 1011.21 1010.81 1010.39 1010.10 1010.46 1011.51 1013.02 1013.47 1013.61 1013.82 1014.94 1016.67 1017.48 1018.41 1018.72 1018.06 1018.48 1017.51 1017.28 1016.06 1016.62 1016.84 1016.69 1016.32 1016.29 1016.14 1016.22 1016.47 1017.06 1018.04 1018.33
1005.62 1005.22 1004.85 1004.81 1005.00 1005.32 1005.44 1005.68 1005.93 1006.11 1006.31 1006.54 1006.97 1007.26 1007.63 1007.98 1008.32 1008.77 1009.59 1010.23 1010.46 1010.84 1011.34 1011.33 1010.59 1010.22 1010.15 1010.18 1010.31 1011.54 1013.14 1013.37 1013.78 1014.41 1016.32 1017.55 1017.80 1018.26 1018.64 1017.97 1017.73 1017.17 1016.68 1016.60 1017.00 1017.41 1017.07 1016.81 1016.55 1016.56 1016.85 1017.43 1017.98 1018.47
1004.84 1004.33 1003.85 1003.80 1003.99 1004.21 1004.44 1004.60 1004.93 1005.26 1005.68 1005.92 1006.15 1006.49 1006.99 1007.43 1007.79 1008.26 1008.90 1009.37 1009.97 1010.28 1010.52 1010.47 1010.34 1010.03 1009.55 1009.96 1010.47 1010.83 1011.87 1013.02 1013.80 1014.59 1016.01 1017.11 1017.47 1017.18 1017.66 1017.02 1016.91 1016.57 1016.61 1016.97 1017.26 1017.68 1017.82 1017.54 1017.25 1017.22 1017.53 1017.77 1018.22 1018.76
1003.95 1003.72 1003.02 1002.90 1003.15 1003.37 1003.57 1003.81 1003.84 1004.35 1004.65 1005.18 1005.53 1005.81 1006.30 1006.78 1007.26 1007.78 1008.55 1008.61 1009.24 1010.04 1010.43 1010.87 1010.41 1009.84 1009.84 1009.99 1010.34 1011.00 1011.99 1013.13 1014.27 1015.44 1016.27 1017.14 1016.87 1017.06 1017.75 1017.27 1016.48 1015.66 1015.67 1016.09 1016.15 1016.08 1016.27 1016.75 1017.03 1017.30 1017.80 1018.19 1018.67 1019.31
1003.16 1002.79 1002.31 1002.22 1002.43 1002.54 1002.72 1002.99 1003.69 1003.86 1004.15 1004.56 1004.87 1005.29 1005.72 1006.16 1006.72 1007.69 1008.11 1008.34 1008.86 1009.34 1010.31 1010.95 1010.11 1010.23 1010.11 1010.34 1010.78 1011.34 1012.11 1013.07 1013.95 1014.84 1015.89 1015.98 1015.62 1015.77 1017.19 1016.94 1014.71 1014.44 1014.49 1014.38 1015.03 1015.61 1015.85 1016.07 1016.86 1017.34 1017.79 1018.25 1018.87 1019.58
1002.70 1002.03 1001.59 1001.43 1001.54 1001.70 1001.96 1002.24 1002.71 1003.15 1003.51 1003.94 1004.41 1004.73 1005.08 1005.55 1006.29 1006.66 1006.93 1006.87 1007.71 1009.00 1009.77 1010.85 1010.78 1010.75 1010.44 1010.83 1011.87 1012.06 1012.35 1012.96 1013.44 1014.69 1015.27 1015.31 1015.39 1015.45 1016.20 1015.49 1013.96 1014.17 1014.22 1014.49 1014.78 1015.77 1016.91 1017.03 1017.26 1017.65 1018.22 1019.31 1020.25 1021.01
1002.25 1001.43 1001.10 1001.35 1001.29 1001.49 1001.94 1001.99 1002.01 1002.34 1002.87 1003.35 1003.81 1004.23 1004.54 1005.07 1005.88 1006.10 1006.64 1006.55 1007.43 1008.68 1009.69 1010.33 1010.70 1011.22 1010.29 1010.99 1011.99 1011.96 1012.45 1012.89 1013.41 1013.93 1014.77 1014.72 1015.53 1015.65 1015.47 1012.26 1013.66 1013.95 1014.49 1015.02 1015.47 1015.67 1016.38 1017.10 1017.96 1018.88 1019.75 1020.77 1021.83 1022.61
1002.05 1001.29 1000.69 1000.58 1000.70 1000.86 1001.03 1001.16 1001.64 1001.83 1002.18 1002.87 1003.29 1003.75 1004.34 1004.73 1005.07 1004.98 1005.70 1006.41 1007.48 1008.52 1009.15 1009.80 1010.36 1010.50 1010.22 1010.51 1011.23 1011.76 1011.90 1012.54 1012.88 1012.96 1013.50 1013.75 1014.74 1014.22 1011.60 1012.24 1013.21 1013.87 1014.47 1015.32 1016.28 1017.17 1017.95 1018.48 1019.24 1020.30 1021.41 1022.30 1023.04 1023.92
1001.77 1000.81 1000.26 1000.04 1000.06 1000.01 1000.24 1000.74 1001.22 1001.74 1001.93 1002.52 1003.30 1003.89 1003.97 1003.76 1004.26 1004.61 1005.60 1006.68 1007.49 1008.11 1009.33 1009.78 1010.13 1010.39 1009.90 1010.25 1010.75 1011.41 1011.34 1011.77 1012.25 1012.14 1012.40 1012.69 1012.65 1011.45 1011.15 1011.80 1012.79 1013.71 1014.28 1015.54 1017.38 1018.85 1019.50 1019.94 1020.67 1021.51 1022.33 1023.27 1024.01 1024.93
1001.09 1000.44 1000.19 1000.02 1000.01 1000.19 1000.28 1000.32 1000.43 1000.79 1001.27 1002.16 1002.37 1003.31 1003.48 1003.16 1004.22 1004.35 1004.97 1006.04 1006.73 1008.08 1008.85 1009.28 1009.37 1009.71 1009.67 1009.83 1010.21 1010.48 1010.68 1011.00 1011.28 1011.42 1011.78 1011.81 1011.78 1010.59 1010.99 1012.23 1012.73 1013.68 1014.82 1015.98 1016.64 1017.62 1018.74 1019.42 1020.71 1022.35 1023.91 1024.86 1025.51 1026.22
1000.54 999.99 999.76 999.61 999.64 999.58 999.47 999.53 999.70 1000.29 1000.37 1000.78 1001.97 1002.57 1003.10 1003.03 1003.33 1004.30 1005.36 1006.43 1007.30 1008.78 1008.74 1008.83 1009.02 1008.94 1009.70 1009.65 1009.93 1010.39 1010.42 1010.68 1010.51 1010.65 1011.39 1011.37 1010.39 1009.71 1011.31 1012.36 1013.55 1014.65 1015.81 1017.27 1018.01 1018.97 1020.45 1021.42 1022.27 1023.40 1024.86 1026.01 1026.79 1027.41
1000.11 999.44 999.07 998.69 998.57 998.20 998.07 998.15 998.33 998.75 1000.13 1000.45 1001.96 1003.23 1003.54 1003.09 1003.59 1004.48 1005.89 1007.12 1007.81 1008.67 1008.37 1008.89 1009.51 1009.45 1009.91 1009.56 1009.99 1010.32 1010.10 1010.42 1010.78 1011.24 1011.22 1011.47 1010.52 1010.90 1011.85 1013.57 1015.37 1016.48 1017.39 1018.71 1020.01 1021.00 1022.03 1023.22 1024.15 1025.07 1026.13 1026.90 1027.69 1028.32
999.55 998.91 998.45 997.90 997.51 996.57 996.07 996.06 995.98 996.37 999.07 1000.80 1002.53 1004.12 1004.12 1004.56 1005.23 1006.11 1006.67 1007.56 1007.60 1007.90 1008.31 1008.64 1009.41 1009.50 1009.75 1010.16 1010.10 1010.52 1010.46 1010.91 1011.70 1011.78 1011.97 1011.65 1011.14 1011.72 1013.15 1014.34 1016.11 1017.69 1018.82 1020.08 1021.31 1022.38 1023.38 1024.29 1025.40 1026.31 1027.20 1027.55 1028.29 1028.59
998.87 998.37 997.98 997.77 996.21 994.74 993.08 992.14 993.11 995.11 999.19 1002.35 1003.66 1005.13 1006.43 1007.19 1008.01 1008.19 1008.28 1008.24 1008.68 1008.00 1008.10 1008.82 1009.21 1009.10 1009.50 1009.84 1010.16 1011.48 1011.96 1011.30 1011.75 1012.80 1012.90 1012.35 1012.45 1013.64 1014.85 1016.01 1017.01 1018.33 1019.78 1021.22 1022.41 1023.36 1024.41 1025.15 1026.08 1027.06 1027.61 1027.91 1028.27 1028.49
998.53 998.32 998.36 997.18 995.72 994.51 991.08 991.31 994.05 997.47 1003.41 1005.44 1007.33 1009.29 1009.83 1009.63 1010.57 1011.04 1010.96 1010.38 1009.98 1008.84 1008.43 1008.81 1009.61 1009.98 1009.94 1009.95 1010.99 1011.96 1012.77 1013.64 1013.41 1013.68 1013.99 1014.43 1015.04 1016.01 1016.85 1017.91 1018.92 1019.61 1020.58 1021.94 1023.07 1024.10 1025.19 1025.88 1026.74 1027.39 1027.77 1027.99 1028.17 1028.16
999.11 999.43 998.71 997.25 996.35 995.37 995.11 995.23 998.43 1003.71 1006.73 1009.20 1011.61 1011.85 1012.06 1012.05 1012.32 1012.82 1012.84 1012.03 1010.79 1010.05 1009.33 1009.58 1010.11 1009.87 1010.14 1010.88 1011.87 1012.98 1014.04 1014.96 1015.97 1016.40 1017.10 1017.27 1017.45 1018.41 1019.00 1019.82 1020.92 1021.83 1022.64 1022.90 1023.59 1024.66 1025.69 1026.74 1027.14 1027.85 1028.15 1028.09 1027.80 1027.74
1000.15 999.68 998.78 997.82 996.96 997.38 999.18 1000.45 1003.42 1006.79 1010.42 1012.33 1013.06 1013.52 1013.40 1013.68 1014.17 1014.15 1013.95 1013.30 1012.34 1011.51 1009.97 1010.15 1009.57 1010.74 1011.95 1013.00 1013.55 1014.15 1015.06 1016.90 1017.80 1018.92 1019.62 1019.38 1019.07 1019.95 1020.52 1021.52 1022.05 1022.71 1023.93 1024.41 1024.45 1025.05 1026.09 1026.95 1027.45 1027.70 1027.68 1027.62 1027.64 1027.53
1000.15 999.66 999.03 998.39 998.17 999.27 1002.09 1004.54 1005.48 1009.48 1012.41 1013.25 1014.06 1014.45 1014.79 1014.83 1014.55 1014.51 1014.09 1013.68 1013.49 1012.90 1011.68 1011.40 1012.72 1013.80 1014.73 1015.44 1015.97 1016.60 1017.64 1017.93 1018.71 1019.61 1020.07 1020.74 1020.43 1020.93 1021.39 1022.10 1022.62 1023.86 1024.70 1025.21 1025.55 1026.09 1026.41 1026.69 1026.83 1027.24 1027.32 1027.16 1027.52 1027.34
1000.48 1000.51 999.98 999.94 999.30 1001.96 1005.63 1007.80 1008.01 1010.15 1012.84 1013.71 1014.15 1014.71 1014.80 1015.01 1015.10 1015.11 1014.73 1014.86 1014.48 1014.25 1014.52 1015.59 1016.50 1017.46 1018.27 1019.07 1019.35 1019.23 1019.00 1018.98 1019.56 1020.29 1020.79 1021.44 1021.90 1022.15 1022.18 1022.56 1023.36 1024.34 1025.15 1025.78 1026.75 1026.82 1027.18 1027.14 1026.95 1026.90 1026.78 1026.95 1027.48 1027.52
1001.52 1001.91 1001.58 1001.36 1003.63 1005.80 1009.30 1010.90 1011.38 1012.36 1013.13 1013.82 1014.47 1014.71 1015.26 1015.50 1015.97 1016.24 1016.54 1016.45 1016.98 1018.79 1019.39 1019.96 1020.16 1020.40 1020.63 1020.85 1020.95 1020.60 1020.47 1020.42 1020.38 1020.44 1021.11 1022.30 1022.73 1023.04 1023.20 1023.52 1024.13 1024.37 1025.19 1026.65 1027.27 1027.35 1027.23 1027.05 1026.81 1026.57 1026.54 1026.78 1026.82 1026.96
1002.91 1002.66 1003.37 1003.75 1006.18 1008.83 1011.35 1013.03 1013.14 1013.18 1013.39 1014.23 1014.50 1014.85 1015.39 1015.87 1016.46 1017.28 1017.71 1018.14 1020.48 1021.94 1022.31 1022.24 1022.13 1021.98 1021.85 1022.17 1022.32 1022.24 1022.15 1021.61 1021.20 1021.24 1021.59 1022.27 1023.27 1023.59 1023.56 1024.14 1024.67 1025.46 1026.40 1027.07 1027.21 1027.36 1027.38 1026.77 1026.67 1026.63 1026.60 1026.67 1026.88 1026.76
1003.89 1003.92 1006.07 1007.58 1009.15 1011.53 1014.91 1014.04 1013.95 1014.40 1014.23 1014.55 1014.52 1015.00 1016.19 1016.66 1017.34 1017.70 1018.90 1020.66 1022.22 1023.38 1023.72 1023.74 1023.60 1023.38 1023.07 1023.07 1023.15 1023.20 1023.11 1022.61 1022.62 1022.90 1023.16 1023.34 1023.93 1024.29 1024.93 1025.68 1025.87 1026.36 1026.74 1027.03 1026.90 1027.01 1027.13 1026.79 1026.83 1026.90 1026.83 1026.87 1027.13 1026.77
1006.95 1010.48 1012.75 1014.22 1015.24 1017.04 1016.66 1016.67 1016.45 1016.29 1016.12 1016.07 1015.99 1016.69 1017.41 1017.92 1018.04 1018.19 1020.38 1022.02 1023.11 1023.63 1023.96 1024.20 1023.97 1023.64 1023.50 1023.61 1024.08 1024.54 1024.70 1024.42 1024.51 1024.84 1025.08 1024.87 1025.22 1026.19 1026.46 1026.69 1026.49 1026.55 1026.93 1026.84 1026.96 1027.08 1027.15 1027.14 1027.03 1026.99 1027.13 1027.37 1027.33 1027.23
1010.72 1018.99 1019.58 1020.52 1020.33 1019.92 1020.12 1019.91 1019.49 1018.76 1019.15 1019.05 1018.29 1018.66 1019.16 1019.27 1018.68 1019.24 1021.01 1022.77 1023.66 1024.25 1024.68 1024.89 1024.69 1024.59 1024.61 1025.03 1025.30 1025.62 1025.85 1025.69 1025.48 1025.65 1025.92 1025.68 1026.14 1026.85 1027.08 1026.85 1026.70 1026.86 1026.94 1027.34 1027.73 1027.57 1027.41 1027.25 1027.21 1027.25 1027.40 1027.35 1027.57 1027.30
1019.11 1024.55 1024.82 1025.18 1024.85 1024.15 1024.47 1023.66 1023.27 1023.13 1022.55 1021.72 1021.49 1021.06 1020.79 1020.08 1019.86 1021.48 1022.75 1023.72 1024.32 1024.78 1025.04 1025.23 1025.36 1025.43 1025.57 1025.90 1026.10 1026.33 1026.53 1026.65 1026.23 1026.34 1026.58 1026.51 1026.44 1026.68 1027.20 1027.72 1027.66 1026.91 1026.63 1026.86 1027.16 1027.53 1027.57 1027.34 1027.28 1027.43 1027.48 1027.19 1027.03 1026.95
1024.67 1027.39 1027.79 1027.76 1027.60 1027.20 1026.93 1026.65 1026.22 1025.58 1025.34 1025.36 1024.87 1023.58 1022.45 1022.28 1023.29 1023.69 1024.12 1024.87 1025.34 1025.69 1025.98 1026.29 1026.59 1026.73 1026.87 1026.82 1026.91 1026.77 1027.19 1027.22 1026.92 1026.84 1026.61 1026.38 1026.42 1026.74 1026.94 1026.87 1026.73 1026.38 1026.16 1026.33 1026.62 1027.02 1027.08 1027.16 1027.18 1027.22 1027.19 1026.97 1026.81 1026.76
1028.32 1029.44 1029.78 1029.54 1029.10 1029.16 1029.17 1029.11 1029.21 1029.55 1029.05 1028.63 1028.06 1026.59 1025.77 1025.51 1025.54 1025.67 1025.68 1025.93 1026.20 1026.46 1026.69 1026.96 1027.39 1027.49 1027.46 1027.33 1027.29 1027.28 1027.20 1027.08 1027.03 1027.10 1026.98 1026.83 1026.65 1026.44 1026.44 1026.34 1026.18 1026.01 1026.05 1026.15 1026.26 1026.35 1026.47 1026.75 1026.80 1026.68 1026.58 1026.54 1026.36 1026.10
1030.21 1030.91 1030.97 1030.76 1030.26 1030.55 1031.47 1031.82 1031.91 1031.72 1031.43 1031.04 1030.25 1029.14 1028.22 1027.41 1026.92 1027.05 1026.87 1027.06 1027.03 1027.20 1027.65 1027.94 1028.05 1028.24 1028.19 1027.96 1027.85 1027.81 1027.94 1027.91 1027.97 1027.71 1027.34 1026.95 1026.86 1026.34 1026.13 1026.15 1026.00 1025.97 1025.99 1025.99 1025.90 1025.82 1025.84 1025.76 1025.88 1026.04 1025.90 1025.93 1025.77 1025.53
1032.11 1031.99 1031.62 1031.57 1031.61 1032.55 1032.89 1033.03 1032.93 1032.83 1032.81 1032.37 1032.03 1030.79 1029.70 1028.33 1027.36 1027.67 1027.78 1028.28 1028.38 1028.38 1028.16 1028.35 1028.37 1028.75 1028.83 1028.56 1028.04 1027.91 1027.40 1027.21 1027.14 1026.92 1026.58 1026.25 1026.15 1025.84 1025.80 1025.83 1025.80 1025.75 1025.85 1025.91 1025.82 1025.62 1025.38 1025.35 1025.36 1025.44 1025.65 1025.67 1025.50 1025.50
1032.61 1032.54 1032.35 1032.08 1032.59 1032.69 1033.14 1033.47 1033.44 1033.51 1033.33 1033.07 1033.12 1032.41 1031.23 1029.86 1027.98 1027.17 1027.53 1027.69 1027.78 1028.06 1028.46 1028.52 1028.70 1028.32 1028.39 1027.69 1027.43 1027.21 1026.81 1026.20 1025.98 1025.70 1025.49 1025.35 1025.32 1025.42 1025.43 1025.32 1025.40 1025.59 1025.55 1025.49 1025.49 1025.65 1025.62 1025.61 1025.53 1025.47 1025.42 1025.28 1024.87 1024.76
1032.98 1033.69 1033.50 1033.16 1032.87 1032.74 1033.19 1033.73 1033.42 1032.83 1032.81 1032.51 1032.48 1032.30 1031.00 1030.49 1028.97 1027.03 1026.50 1027.27 1027.93 1027.93 1027.51 1027.60 1027.48 1026.90 1026.22 1025.93 1025.79 1025.62 1025.44 1025.40 1025.22 1024.98 1024.88 1024.62 1024.44 1024.48 1024.85 1024.79 1024.92 1025.06 1024.96 1025.02 1025.11 1025.31 1025.25 1025.20 1025.14 1025.01 1024.82 1024.41 1023.97 1023.58
1034.29 1034.20 1034.15 1033.90 1033.21 1032.86 1032.95 1033.10 1032.30 1031.51 1031.29 1031.37 1031.45 1031.35 1031.01 1030.72 1028.80 1026.41 1025.53 1025.54 1025.64 1025.91 1026.10 1025.94 1025.69 1025.32 1025.08 1024.96 1024.83 1024.59 1024.64 1024.56 1024.30 1023.63 1023.14 1023.22 1023.36 1023.33 1023.91 1024.20 1024.61 1024.38 1024.46 1024.61 1024.63 1024.65 1024.55 1024.44 1024.27 1023.94 1023.61 1023.22 1022.75 1022.29
Wind_Speed
19 19 21 18 18 15 16 16 17 16 16 16 18 17 17 16 16 6 1 8 3 3 4 5 7 6 3 2 5 3 4 2 3 2 4 4 4 5 4 2 6 8 6 3 3 3 8 7 3 10 6 3 5 6
18 22 26 23 21 20 17 18 17 18 18 17 19 19 18 18 17 13 2 4 6 2 2 1 4 4 5 9 7 2 3 4 5 5 1 4 2 2 4 4 2 3 6 7 8 6 2 2 2 3 4 7 5 7
19 22 24 24 23 21 19 21 20 20 21 18 18 20 20 19 19 15 3 4 4 3 1 1 6 4 3 4 4 6 2 3 1 1 5 3 4 4 5 6 2 3 1 4 5 3 1 3 3 4 4 7 7 7
21 21 22 23 24 21 22 23 23 21 21 20 19 17 18 20 18 17 4 5 3 1 4 5 2 5 4 6 3 4 7 5 5 3 3 3 4 2 3 3 4 5 6 6 2 2 1 3 2 6 6 7 7 5
20 23 21 17 20 20 21 20 23 23 21 18 18 17 17 20 18 9 5 6 6 2 2 3 2 3 2 7 9 8 8 6 2 3 3 3 2 5 2 2 3 6 8 6 6 10 6 8 8 6 7 6 7 6
23 21 18 15 17 17 16 15 16 18 18 17 16 16 17 20 19 4 3 6 7 3 3 1 2 2 2 4 8 9 6 3 3 5 3 1 2 4 5 5 5 6 5 6 6 7 4 6 10 5 6 4 2 3
26 23 16 18 19 19 19 19 19 19 17 16 18 17 16 20 10 4 3 5 19 5 3 1 2 3 3 5 3 3 3 2 4 3 1 4 1 4 4 5 6 9 9 6 7 9 4 3 7 7 5 6 5 4
28 20 12 9 18 16 17 19 20 21 20 18 17 17 17 20 16 7 2 15 12 4 3 3 2 2 3 4 2 2 3 2 1 4 2 4 3 2 3 20 10 7 7 6 9 5 5 6 6 6 4 4 4 3
27 22 13 7 9 17 12 18 26 19 18 18 17 16 7 7 5 4 19 23 3 4 4 3 6 5 2 3 3 1 3 4 2 4 3 6 4 6 14 8 9 9 11 10 4 6 5 4 7 7 5 4 5 4
23 19 10 10 10 13 8 3 17 21 23 18 8 3 4 5 16 21 9 7 4 3 2 3 2 3 4 2 2 4 2 4 5 5 5 4 6 15 9 8 9 13 13 11 7 3 2 3 9 8 6 3 4 3
23 20 16 16 11 11 14 15 17 10 14 8 4 4 3 21 4 3 4 5 3 6 5 5 5 5 2 4 4 2 4 4 6 5 8 6 5 18 17 7 9 10 11 9 6 3 5 5 8 9 6 3 4 2
22 21 18 16 12 17 18 16 17 10 5 7 7 5 3 4 4 6 6 3 5 7 3 6 4 5 2 3 3 4 4 3 6 7 5 5 10 17 10 10 8 7 10 9 3 10 7 7 6 8 7 5 4 4
22 22 20 15 18 22 21 21 23 25 15 4 4 3 4 4 4 8 8 2 6 3 4 3 1 4 2 1 1 2 6 4 5 5 6 6 5 4 7 7 6 4 8 10 7 7 8 8 5 4 5 3 4 3
22 22 20 15 24 26 25 28 25 23 9 4 7 6 4 3 3 4 7 7 5 5 6 6 4 5 3 4 3 4 2 5 6 5 7 5 10 9 8 4 13 11 9 9 9 8 8 8 6 3 3 4 5 4
23 19 12 16 28 28 36 25 30 12 5 5 4 3 3 2 2 2 2 5 2 1 7 4 4 4 1 4 4 3 4 5 7 7 6 6 3 4 7 5 9 12 10 8 6 7 7 7 6 3 3 4 4 3
21 10 5 28 24 26 19 28 10 7 7 5 8 5 3 1 3 4 3 2 2 1 3 5 4 4 4 5 5 6 6 5 6 5 2 2 2 3 5 5 5 8 10 9 7 6 6 6 5 4 1 3 4 4
11 3 22 23 17 16 27 9 8 11 6 6 2 2 3 1 3 1 0 2 3 1 5 5 7 10 2 3 6 6 7 5 4 4 3 3 4 5 7 9 7 7 6 7 6 6 5 3 4 3 3 2 1 2
2 8 19 19 10 7 6 9 7 7 9 3 4 4 2 2 2 2 2 3 3 1 3 5 3 4 6 7 4 5 2 3 3 1 3 3 6 7 7 9 7 6 5 3 5 6 5 5 5 4 3 3 1 1
5 11 20 17 10 6 6 7 5 8 3 2 2 1 2 1 1 1 1 3 1 2 2 3 2 4 5 2 1 1 2 2 2 2 2 4 6 8 9 8 7 6 6 2 2 3 3 3 3 3 3 2 3 0
3 17 17 19 11 6 7 6 4 6 4 1 2 3 2 2 0 2 4 5 3 3 4 2 3 3 2 1 1 3 1 3 5 5 4 4 3 4 7 7 6 6 5 4 2 3 2 2 0 2 2 3 3 1
8 8 12 7 6 9 7 4 5 3 3 3 1 2 3 2 2 3 4 4 5 4 2 1 1 1 1 1 2 2 4 3 1 2 4 3 2 4 4 4 5 3 4 2 2 1 2 3 2 1 3 2 1 2
3 11 4 7 7 5 6 5 3 1 2 2 2 1 2 2 2 2 2 5 4 2 2 3 3 3 3 4 3 4 4 2 3 5 10 9 4 3 3 3 3 3 3 3 3 4 2 2 1 2 3 0 0 0
9 7 7 10 8 9 3 5 4 6 3 2 0 3 3 2 2 2 5 3 2 1 1 1 2 2 2 2 1 4 6 4 5 5 4 5 4 4 4 2 2 4 3 1 2 3 2 1 1 2 1 2 1 2
13 12 10 8 9 3 2 5 3 3 3 4 3 2 3 3 5 3 4 1 1 1 1 2 2 0 1 3 3 3 3 3 4 4 1 3 4 3 1 1 1 1 1 2 2 2 1 1 1 3 2 1 1 0
10 14 8 10 5 6 7 5 5 4 4 3 2 3 3 3 1 4 3 2 1 1 1 1 0 2 2 1 1 0 0 1 2 3 1 2 3 2 3 1 2 3 2 4 1 2 0 1 1 1 1 1 1 3
14 6 7 4 5 5 3 4 5 4 2 2 3 4 2 2 5 4 2 2 1 1 1 1 1 2 2 1 1 2 2 1 2 3 2 3 3 4 3 2 1 4 4 2 4 4 3 2 2 2 2 3 3 2
9 6 4 0 1 1 3 2 0 3 6 6 4 5 2 6 2 3 1 1 1 0 0 0 1 2 1 1 2 2 1 2 1 1 2 1 1 2 3 4 4 4 3 4 3 4 4 4 3 3 4 3 3 4
3 3 4 6 4 1 4 3 5 4 3 2 1 6 4 2 3 3 3 1 1 1 1 1 1 0 0 2 1 1 3 3 4 3 3 3 3 3 3 3 3 4 3 3 4 4 3 4 4 4 4 4 5 3
4 3 0 5 4 5 3 2 1 3 1 2 2 1 3 3 3 2 2 1 2 3 3 3 4 3 3 3 2 2 1 2 4 2 3 3 3 3 3 3 2 2 2 3 5 6 7 6 5 5 6 4 4 3
4 2 3 1 5 3 3 3 3 3 1 1 1 3 3 4 4 1 2 2 2 3 4 3 1 3 3 3 3 4 4 5 4 4 4 4 5 3 2 3 3 2 1 2 2 3 6 4 5 4 3 3 3 4
1 2 3 3 2 3 4 2 2 1 1 1 1 2 4 4 5 3 3 3 3 3 3 2 3 3 4 3 4 2 3 3 7 8 5 3 3 3 3 3 3 3 3 3 3 2 2 2 2 4 6 8 9 7
4 4 2 4 3 3 2 2 1 0 3 2 2 1 4 3 3 4 4 4 3 2 6 4 3 5 6 5 3 3 3 2 3 4 7 4 4 5 4 4 3 3 3 3 3 3 3 6 5 6 8 10 10 10
2 0 1 2 5 5 4 4 4 5 3 4 3 1 2 2 3 4 2 5 4 4 4 5 5 4 5 6 6 4 6 5 6 8 8 10 10 8 4 3 3 3 4 4 4 4 7 7 9 11 11 12 13 13
Wind_Direction
273 272 269 266 270 262 267 258 261 253 247 242 240 244 230 234 242 203 120 172 189 152 260 203 176 135 90 118 141 206 93 335 73 108 129 191 145 210 100 183 179 173 149 173 117 109 270 160 77 158 186 55 117 109
277 278 263 257 255 259 257 261 253 258 247 241 240 240 238 234 235 224 162 181 181 179 278 293 261 275 186 176 134 346 155 167 175 100 89 100 98 42 130 202 281 216 182 173 177 197 259 178 113 128 130 134 141 118
309 293 273 252 254 249 254 260 251 246 247 235 240 231 234 231 226 221 137 162 182 164 250 263 221 245 183 174 171 130 300 190 96 147 152 158 146 134 160 234 110 275 225 142 91 297 170 110 61 86 117 118 127 129
317 300 281 253 250 253 254 253 253 238 237 238 234 238 231 233 228 216 189 160 116 242 189 249 342 233 181 154 154 112 128 75 93 69 107 135 141 194 197 166 152 190 129 151 290 317 96 335 253 151 130 123 121 121
314 301 285 250 250 255 245 251 242 226 228 232 235 234 233 228 222 212 167 183 169 198 187 252 309 248 265 182 159 130 124 123 120 81 110 186 133 111 329 47 245 187 164 165 211 176 149 183 180 165 153 163 159 158
317 309 272 254 247 239 232 226 226 227 226 231 237 238 239 223 212 138 183 191 169 164 141 181 284 351 5 151 143 142 144 117 123 144 183 211 265 114 131 194 237 178 169 159 169 175 170 164 167 166 175 187 111 119
319 316 268 252 244 242 238 230 227 231 233 229 230 234 236 222 200 188 201 184 166 133 119 129 287 292 135 94 29 76 66 145 129 133 184 143 172 110 102 221 142 184 174 170 129 114 52 179 195 184 142 123 82 74
328 311 286 254 268 259 266 263 241 225 219 227 232 233 228 223 206 202 180 150 145 108 151 191 222 90 214 133 144 194 117 103 328 150 56 133 103 89 225 240 151 169 144 135 168 180 155 133 113 121 88 107 120 150
327 314 288 268 238 238 238 246 233 231 226 224 224 231 228 217 189 187 153 148 92 137 178 142 145 180 183 118 123 110 131 177 118 170 195 141 151 200 231 154 172 175 173 182 153 105 105 147 167 151 146 147 168 160
318 325 324 328 312 305 298 223 218 240 233 222 204 121 218 198 129 147 134 165 157 169 96 160 80 150 181 115 147 120 178 173 179 217 119 197 212 240 241 178 165 176 185 140 129 232 177 204 185 176 187 126 128 137
317 326 332 314 314 304 292 287 279 240 217 199 176 182 212 158 162 143 171 163 143 160 158 192 165 138 196 135 158 222 170 170 190 195 182 182 222 226 223 185 185 181 172 170 176 133 101 145 159 152 148 147 135 124
321 319 319 308 297 292 289 270 259 222 185 174 150 103 110 219 169 153 151 132 131 180 213 126 199 146 152 127 175 172 190 168 210 148 173 197 227 222 178 198 167 156 147 135 119 126 110 99 101 119 136 157 173 187
319 318 316 303 303 303 293 278 256 240 160 121 99 167 193 217 157 155 152 112 117 156 149 120 63 127 71 80 125 179 201 206 108 171 207 211 242 220 170 120 125 93 103 114 109 97 108 112 96 121 148 179 157 202
321 317 317 317 314 308 291 286 250 181 118 146 155 196 224 166 142 161 132 153 198 133 150 139 133 147 170 139 169 241 211 139 209 199 221 234 217 201 163 126 133 165 146 132 130 128 128 135 138 133 161 162 160 207
325 330 316 325 328 326 304 260 188 122 92 109 127 176 232 115 39 295 304 88 328 121 131 77 47 104 138 151 154 119 308 245 184 200 212 225 229 140 152 149 137 144 139 132 131 131 134 134 134 141 201 187 193 203
339 338 328 337 345 1 34 104 80 82 62 69 40 115 292 47 2 25 342 84 297 176 86 68 125 118 203 161 138 213 172 247 242 212 267 356 28 64 107 94 95 121 127 126 122 122 127 133 149 160 234 190 190 185
10 9 330 340 357 16 14 51 51 50 75 65 23 16 116 64 94 271 183 305 316 149 161 121 146 203 111 128 167 163 210 235 321 316 323 360 82 71 73 81 80 100 109 122 122 121 115 122 108 100 111 271 292 229
5 307 349 355 5 49 27 33 77 71 68 33 66 306 37 96 114 346 330 343 23 334 83 186 138 138 171 175 233 212 147 153 157 228 321 338 96 92 99 111 100 92 108 114 107 111 119 138 149 181 183 227 177 72
39 2 10 10 42 79 59 41 36 85 67 128 86 30 96 149 36 21 352 341 277 279 28 63 181 165 187 79 248 271 254 190 161 115 66 30 79 103 106 102 95 108 123 113 114 142 136 157 155 169 189 148 119 180
25 22 13 23 34 60 57 17 34 78 72 190 52 17 74 76 243 1 30 13 10 21 39 35 202 209 165 275 338 298 210 107 124 116 99 91 56 106 118 126 123 121 112 78 64 125 113 91 81 152 122 108 93 23
35 351 11 52 51 58 74 9 53 62 114 79 279 29 82 82 40 28 20 332 54 33 38 328 336 349 170 247 292 315 22 7 94 122 147 129 148 130 122 100 125 110 96 129 144 93 106 144 201 142 103 105 143 201
331 7 62 15 77 67 81 18 69 69 82 122 120 44 46 72 66 34 280 58 63 39 353 329 346 338 33 32 359 17 323 347 58 79 89 114 122 135 102 105 123 114 146 172 165 165 193 225 183 114 101 165 49 215
9 21 46 17 76 45 360 333 54 7 60 26 249 88 55 63 49 290 74 57 103 90 330 344 328 338 43 39 74 45 14 22 75 71 79 81 72 55 91 114 181 147 135 245 182 150 152 358 73 98 59 48 16 353
28 44 34 37 23 63 322 38 27 32 38 21 13 75 33 9 335 69 87 51 3 333 32 358 324 23 101 67 46 23 10 20 98 90 23 122 110 89 59 95 358 269 198 142 121 111 118 138 68 72 65 85 357 245
65 3 24 6 359 34 35 22 9 31 49 350 357 70 13 315 138 65 58 86 41 24 347 297 318 28 101 121 112 63 185 338 90 99 340 59 100 50 25 2 300 252 141 103 143 143 174 75 101 134 164 159 247 298
65 332 35 340 351 47 340 46 29 30 8 35 10 327 329 336 45 33 24 359 344 319 338 360 10 21 29 12 87 1 348 8 87 68 285 188 152 124 141 137 249 282 190 174 136 161 189 196 165 198 261 272 272 281
55 344 336 78 97 108 68 34 61 40 39 17 352 334 334 70 34 312 335 181 241 188 242 5 143 134 193 271 280 271 253 210 160 204 299 246 207 184 159 169 205 240 169 174 163 159 172 195 199 222 251 282 251 237
124 21 43 322 37 15 105 44 38 28 327 328 266 22 81 138 218 242 225 343 181 98 62 24 360 41 8 272 287 6 344 358 345 334 314 290 241 234 224 247 250 206 166 175 185 176 169 177 202 220 227 247 266 254
39 334 42 17 20 44 61 94 229 251 229 103 99 341 268 241 246 241 277 337 31 66 37 351 316 6 335 330 319 274 229 152 131 152 216 252 316 276 205 220 226 207 188 194 231 199 204 210 213 220 241 245 256 260
330 23 63 38 63 22 264 168 242 265 242 205 256 310 306 281 251 147 99 80 131 203 211 189 199 158 213 189 254 288 226 207 203 176 176 216 228 256 218 206 218 229 183 188 243 305 314 357 350 358 343 311 292 286
298 30 67 51 120 245 234 276 307 329 360 309 314 167 247 294 305 237 190 197 152 119 123 225 248 209 188 201 196 197 290 234 220 234 236 237 234 239 250 232 219 200 189 201 214 221 245 268 245 274 282 278 276 271
6 58 75 41 320 280 33 41 269 112 309 29 282 305 318 356 303 271 192 128 111 202 230 194 196 248 211 230 232 254 243 246 219 224 227 228 236 236 233 231 213 194 197 216 211 220 226 248 264 261 268 272 272 270
38 42 83 37 3 1 340 3 10 346 18 16 334 243 222 178 246 277 231 214 189 190 204 211 225 229 225 220 221 232 231 229 239 252 251 243 241 242 224 210 186 184 203 225 234 227 242 245 258 260 262 262 267 270